Time,TemperatureF,DewpointF,PressureIn,WindDirection,WindDirectionDegrees,WindSpeedMPH,WindSpeedGustMPH,Humidity,HourlyPrecipIn,Conditions,Clouds,dailyrainin,SolarRadiationWatts/m^2,SoftwareType,DateUTC
2013-08-06 00:02:00,62.4,61.3,29.85,North,5,0.0,0.0,96,0.00,,,1.14,0.0,meteohub,2013-08-06 05:02:00,
2013-08-06 00:07:00,62.2,61.2,29.85,North,5,0.0,0.0,96,0.00,,,0.00,0.0,meteohub,2013-08-06 05:07:00,
2013-08-06 00:12:00,62.1,61.0,29.84,North,5,0.0,0.0,96,0.00,,,0.00,0.0,meteohub,2013-08-06 05:12:00,
2013-08-06 00:17:00,62.1,61.0,29.85,North,5,0.0,0.0,96,0.00,,,0.00,0.0,meteohub,2013-08-06 05:17:00,
2013-08-06 00:22:00,61.9,60.8,29.84,North,5,0.0,0.0,96,0.00,,,0.00,0.0,meteohub,2013-08-06 05:22:00,
2013-08-06 00:27:00,61.9,60.8,29.84,North,5,0.0,0.0,96,0.00,,,0.00,0.0,meteohub,2013-08-06 05:27:00,
2013-08-06 00:32:00,61.5,60.4,29.84,North,5,0.0,0.0,96,0.00,,,0.00,0.0,meteohub,2013-08-06 05:32:00,
2013-08-06 00:37:00,61.5,60.4,29.83,North,5,0.0,0.0,96,0.00,,,0.00,0.0,meteohub,2013-08-06 05:37:00,
2013-08-06 00:42:00,61.5,60.4,29.83,North,5,0.0,0.0,96,0.00,,,0.00,0.0,meteohub,2013-08-06 05:42:00,
2013-08-06 00:47:00,61.5,60.4,29.83,North,5,0.0,0.0,96,0.00,,,0.00,0.0,meteohub,2013-08-06 05:47:00,
2013-08-06 00:52:00,61.3,60.4,29.83,North,5,0.0,0.0,97,0.00,,,0.00,0.0,meteohub,2013-08-06 05:52:00,
2013-08-06 00:57:00,61.3,60.4,29.83,North,5,0.0,0.0,97,0.00,,,0.00,0.0,meteohub,2013-08-06 05:57:00,
2013-08-06 01:02:00,61.3,60.4,29.83,North,5,0.0,0.0,97,0.00,,,0.00,0.0,meteohub,2013-08-06 06:02:00,
2013-08-06 01:07:00,61.0,59.9,29.83,North,5,0.0,0.0,96,0.00,,,0.00,0.0,meteohub,2013-08-06 06:07:00,
2013-08-06 01:12:00,60.8,59.9,29.83,North,5,0.0,0.0,97,0.00,,,0.00,0.0,meteohub,2013-08-06 06:12:00,
2013-08-06 01:17:00,60.6,59.7,29.83,North,5,0.0,0.0,97,0.00,,,0.00,0.0,meteohub,2013-08-06 06:17:00,
2013-08-06 01:22:00,60.6,59.7,29.83,North,5,0.0,0.0,97,0.00,,,0.00,0.0,meteohub,2013-08-06 06:22:00,
2013-08-06 01:27:00,60.8,59.9,29.82,North,5,0.0,0.0,97,0.00,,,0.00,0.0,meteohub,2013-08-06 06:27:00,
2013-08-06 01:32:00,61.0,60.1,29.82,North,5,0.0,0.0,97,0.00,,,0.00,0.0,meteohub,2013-08-06 06:32:00,
2013-08-06 01:37:00,61.0,60.1,29.83,North,5,0.0,0.0,97,0.00,,,0.00,0.0,meteohub,2013-08-06 06:37:00,
2013-08-06 01:42:00,60.8,59.9,29.82,North,5,0.0,0.0,97,0.00,,,0.00,0.0,meteohub,2013-08-06 06:42:00,
2013-08-06 01:47:00,60.6,59.7,29.83,North,5,0.0,0.0,97,0.00,,,0.00,0.0,meteohub,2013-08-06 06:47:00,
2013-08-06 01:52:00,60.6,59.7,29.83,North,5,0.0,0.0,97,0.00,,,0.00,0.0,meteohub,2013-08-06 06:52:00,
2013-08-06 01:57:00,60.8,59.9,29.83,North,5,0.0,0.0,97,0.00,,,0.00,0.0,meteohub,2013-08-06 06:57:00,
2013-08-06 02:02:00,60.6,59.7,29.82,North,5,0.0,0.0,97,0.00,,,0.00,0.0,meteohub,2013-08-06 07:02:00,
2013-08-06 02:07:00,60.6,59.7,29.82,North,5,0.0,0.0,97,0.00,,,0.00,0.0,meteohub,2013-08-06 07:07:00,
2013-08-06 02:12:00,60.6,59.7,29.82,North,5,0.0,0.0,97,0.00,,,0.00,0.0,meteohub,2013-08-06 07:12:00,
2013-08-06 02:17:00,60.6,59.7,29.83,North,5,0.0,0.0,97,0.00,,,0.00,0.0,meteohub,2013-08-06 07:17:00,
2013-08-06 02:22:00,60.3,59.4,29.83,North,5,0.0,0.0,97,0.00,,,0.00,0.0,meteohub,2013-08-06 07:22:00,
2013-08-06 02:27:00,60.1,59.2,29.83,North,5,0.0,0.0,97,0.00,,,0.00,0.0,meteohub,2013-08-06 07:27:00,
2013-08-06 02:32:00,60.3,59.4,29.83,North,5,0.0,0.0,97,0.00,,,0.00,0.0,meteohub,2013-08-06 07:32:00,
2013-08-06 02:37:00,60.4,59.5,29.82,North,5,0.0,0.0,97,0.00,,,0.00,0.0,meteohub,2013-08-06 07:37:00,
2013-08-06 02:42:00,60.4,59.5,29.82,North,5,0.0,0.0,97,0.00,,,0.00,0.0,meteohub,2013-08-06 07:42:00,
2013-08-06 02:47:00,60.4,59.5,29.82,North,5,0.0,0.0,97,0.00,,,0.00,0.0,meteohub,2013-08-06 07:47:00,
2013-08-06 02:52:00,60.4,59.5,29.82,North,5,0.0,0.0,97,0.00,,,0.00,0.0,meteohub,2013-08-06 07:52:00,
2013-08-06 02:57:00,60.4,59.5,29.82,North,5,0.0,0.0,97,0.00,,,0.00,0.0,meteohub,2013-08-06 07:57:00,
2013-08-06 03:02:00,60.4,59.5,29.82,North,5,0.0,0.0,97,0.00,,,0.00,0.0,meteohub,2013-08-06 08:02:00,
2013-08-06 03:07:00,60.4,59.5,29.81,North,5,0.0,0.0,97,0.00,,,0.00,0.0,meteohub,2013-08-06 08:07:00,
2013-08-06 03:12:00,60.4,59.5,29.80,North,5,0.0,0.0,97,0.00,,,0.00,0.0,meteohub,2013-08-06 08:12:00,
2013-08-06 03:17:00,60.4,59.5,29.80,North,5,0.0,0.0,97,0.00,,,0.00,0.0,meteohub,2013-08-06 08:17:00,
2013-08-06 03:22:00,60.4,59.5,29.79,North,5,0.0,0.0,97,0.00,,,0.00,0.0,meteohub,2013-08-06 08:22:00,
2013-08-06 03:27:00,60.3,59.4,29.79,North,5,0.0,0.0,97,0.00,,,0.00,0.0,meteohub,2013-08-06 08:27:00,
2013-08-06 03:32:00,60.1,59.2,29.78,North,5,0.0,0.0,97,0.00,,,0.00,0.0,meteohub,2013-08-06 08:32:00,
2013-08-06 03:37:00,60.1,59.2,29.78,North,5,0.0,0.0,97,0.00,,,0.00,0.0,meteohub,2013-08-06 08:37:00,
2013-08-06 03:42:00,60.1,59.2,29.79,North,5,0.0,0.0,97,0.00,,,0.00,0.0,meteohub,2013-08-06 08:42:00,
2013-08-06 03:47:00,59.9,59.0,29.81,North,5,0.0,0.0,97,0.00,,,0.00,0.0,meteohub,2013-08-06 08:47:00,
2013-08-06 03:52:00,59.9,59.0,29.80,North,5,0.0,0.0,97,0.00,,,0.00,0.0,meteohub,2013-08-06 08:52:00,
2013-08-06 03:57:00,59.9,59.4,29.79,North,5,0.0,0.0,98,0.00,,,0.00,0.0,meteohub,2013-08-06 08:57:00,
2013-08-06 04:02:00,59.7,59.2,29.79,North,5,0.0,0.0,98,0.00,,,0.00,0.0,meteohub,2013-08-06 09:02:00,
2013-08-06 04:07:00,59.7,59.2,29.78,North,5,0.0,0.0,98,0.00,,,0.00,0.0,meteohub,2013-08-06 09:07:00,
2013-08-06 04:13:00,59.7,59.2,29.78,North,5,0.0,0.0,98,0.00,,,0.00,0.0,meteohub,2013-08-06 09:13:00,
2013-08-06 04:18:00,59.9,59.4,29.78,North,5,0.0,0.0,98,0.00,,,0.00,0.0,meteohub,2013-08-06 09:18:00,
2013-08-06 04:23:00,59.7,59.2,29.78,North,5,0.0,1.0,98,0.00,,,0.00,0.0,meteohub,2013-08-06 09:23:00,
2013-08-06 04:28:00,59.7,59.2,29.78,North,5,0.0,1.0,98,0.00,,,0.00,0.0,meteohub,2013-08-06 09:28:00,
2013-08-06 04:33:00,59.7,59.2,29.78,North,5,0.0,1.0,98,0.00,,,0.00,0.0,meteohub,2013-08-06 09:33:00,
2013-08-06 04:38:00,59.7,59.2,29.78,North,5,0.0,0.0,98,0.00,,,0.00,0.0,meteohub,2013-08-06 09:38:00,
2013-08-06 04:43:00,59.7,59.2,29.78,NNW,346,1.0,0.0,98,0.00,,,0.00,0.0,meteohub,2013-08-06 09:43:00,
2013-08-06 04:47:00,59.9,59.4,29.78,NNW,331,0.0,3.0,98,0.00,,,0.00,0.0,meteohub,2013-08-06 09:47:00,
2013-08-06 04:53:00,59.9,59.4,29.78,NNW,331,0.0,3.0,98,0.00,,,0.00,0.0,meteohub,2013-08-06 09:53:00,
2013-08-06 04:58:00,59.9,59.4,29.78,NNW,331,0.0,2.0,98,0.00,,,0.00,0.0,meteohub,2013-08-06 09:58:00,
2013-08-06 05:03:00,60.1,59.5,29.79,NNW,331,0.0,1.0,98,0.00,,,0.00,0.0,meteohub,2013-08-06 10:03:00,
2013-08-06 05:08:00,60.3,59.7,29.80,NNW,331,0.0,0.0,98,0.00,,,0.00,0.0,meteohub,2013-08-06 10:08:00,
2013-08-06 05:13:00,60.3,59.7,29.80,NNW,331,0.0,0.0,98,0.00,,,0.00,0.0,meteohub,2013-08-06 10:13:00,
2013-08-06 05:18:00,60.3,59.7,29.80,NNW,331,0.0,0.0,98,0.00,,,0.00,0.0,meteohub,2013-08-06 10:18:00,
2013-08-06 05:23:00,60.1,59.5,29.80,NNW,331,0.0,0.0,98,0.00,,,0.00,0.0,meteohub,2013-08-06 10:23:00,
2013-08-06 05:28:00,60.1,59.5,29.79,NNW,331,0.0,0.0,98,0.00,,,0.00,0.0,meteohub,2013-08-06 10:28:00,
2013-08-06 05:33:00,60.3,59.7,29.79,North,10,0.0,0.0,98,0.00,,,0.00,0.0,meteohub,2013-08-06 10:33:00,
2013-08-06 05:38:00,60.3,59.7,29.79,North,10,0.0,1.0,98,0.00,,,0.00,0.0,meteohub,2013-08-06 10:38:00,
2013-08-06 05:43:00,60.4,59.9,29.78,NE,51,0.0,1.0,98,0.00,,,0.00,0.0,meteohub,2013-08-06 10:43:00,
2013-08-06 05:48:00,60.6,60.1,29.78,NE,51,0.0,1.0,98,0.00,,,0.00,0.0,meteohub,2013-08-06 10:48:00,
2013-08-06 05:53:00,60.6,60.1,29.78,NE,50,0.0,1.0,98,0.00,,,0.00,0.0,meteohub,2013-08-06 10:53:00,
2013-08-06 05:58:00,60.6,60.1,29.78,NE,50,0.0,1.0,98,0.00,,,0.00,0.0,meteohub,2013-08-06 10:58:00,
2013-08-06 06:03:00,60.6,60.1,29.78,NE,50,0.0,1.0,98,0.00,,,0.00,0.0,meteohub,2013-08-06 11:03:00,
2013-08-06 06:08:00,60.6,60.1,29.78,NE,50,0.0,1.0,98,0.00,,,0.00,0.0,meteohub,2013-08-06 11:08:00,
2013-08-06 06:13:00,60.6,60.1,29.78,NE,50,0.0,0.0,98,0.00,,,0.00,0.0,meteohub,2013-08-06 11:13:00,
2013-08-06 06:18:00,60.6,60.1,29.78,NE,50,0.0,1.0,98,0.00,,,0.00,0.0,meteohub,2013-08-06 11:18:00,
2013-08-06 06:23:00,60.8,60.3,29.78,NE,50,0.0,1.0,98,0.00,,,0.00,0.0,meteohub,2013-08-06 11:23:00,
2013-08-06 06:28:00,60.8,60.3,29.77,NE,50,0.0,1.0,98,0.00,,,0.00,5.0,meteohub,2013-08-06 11:28:00,
2013-08-06 06:33:00,61.2,60.6,29.77,NE,43,0.0,0.0,98,0.00,,,0.00,7.0,meteohub,2013-08-06 11:33:00,
2013-08-06 06:38:00,61.2,60.6,29.77,North,355,0.0,1.0,98,0.00,,,0.00,12.0,meteohub,2013-08-06 11:38:00,
2013-08-06 06:43:00,61.2,60.6,29.77,North,355,0.0,1.0,98,0.00,,,0.00,16.0,meteohub,2013-08-06 11:43:00,
2013-08-06 06:48:00,61.3,60.8,29.77,NE,40,0.0,1.0,98,0.00,,,0.00,16.0,meteohub,2013-08-06 11:48:00,
2013-08-06 06:53:00,61.3,60.8,29.77,NE,38,0.0,1.0,98,0.00,,,0.00,18.0,meteohub,2013-08-06 11:53:00,
2013-08-06 06:58:00,61.3,60.8,29.77,NE,36,0.0,1.0,98,0.00,,,0.00,19.0,meteohub,2013-08-06 11:58:00,
2013-08-06 07:03:00,61.5,61.0,29.77,WNW,286,0.0,1.0,98,0.00,,,0.00,23.0,meteohub,2013-08-06 12:03:00,
2013-08-06 07:08:00,61.7,61.2,29.77,WNW,286,0.0,2.0,98,0.00,,,0.00,26.0,meteohub,2013-08-06 12:08:00,
2013-08-06 07:13:00,61.7,61.2,29.77,WNW,286,0.0,2.0,98,0.00,,,0.00,28.0,meteohub,2013-08-06 12:13:00,
2013-08-06 07:18:00,61.9,61.3,29.77,WNW,286,0.0,2.0,98,0.00,,,0.00,19.0,meteohub,2013-08-06 12:18:00,
2013-08-06 07:23:00,62.1,61.5,29.78,WNW,286,0.0,2.0,98,0.00,,,0.00,25.0,meteohub,2013-08-06 12:23:00,
2013-08-06 07:28:00,62.2,61.7,29.78,WNW,286,0.0,1.0,98,0.00,,,0.00,26.0,meteohub,2013-08-06 12:28:00,
2013-08-06 07:33:00,62.4,61.9,29.77,WNW,286,0.0,1.0,98,0.00,,,0.00,28.0,meteohub,2013-08-06 12:33:00,
2013-08-06 07:38:00,62.4,61.9,29.76,WNW,286,0.0,1.0,98,0.00,,,0.00,42.0,meteohub,2013-08-06 12:38:00,
2013-08-06 07:43:00,63.0,62.4,29.77,NW,319,0.0,1.0,98,0.00,,,0.00,46.0,meteohub,2013-08-06 12:43:00,
2013-08-06 07:48:00,63.1,62.6,29.76,NW,310,0.0,2.0,98,0.00,,,0.00,40.0,meteohub,2013-08-06 12:48:00,
2013-08-06 07:53:00,63.3,62.8,29.76,ESE,121,1.0,2.0,98,0.00,,,0.00,49.0,meteohub,2013-08-06 12:53:00,
2013-08-06 07:58:00,63.5,63.0,29.77,WNW,286,0.0,2.0,98,0.00,,,0.00,58.0,meteohub,2013-08-06 12:58:00,
2013-08-06 08:03:00,63.5,62.6,29.75,WNW,295,0.0,4.0,97,0.00,,,0.00,70.0,meteohub,2013-08-06 13:03:00,
2013-08-06 08:08:00,63.9,63.0,29.76,WNW,301,1.0,4.0,97,0.00,,,0.00,83.0,meteohub,2013-08-06 13:08:00,
2013-08-06 08:13:00,64.0,63.1,29.76,NW,310,0.0,3.0,97,0.00,,,0.00,81.0,meteohub,2013-08-06 13:13:00,
2013-08-06 08:18:00,64.2,63.3,29.76,West,277,0.0,4.0,97,0.00,,,0.00,86.0,meteohub,2013-08-06 13:18:00,
2013-08-06 08:23:00,64.6,63.7,29.75,WNW,290,0.0,4.0,97,0.00,,,0.00,88.0,meteohub,2013-08-06 13:23:00,
2013-08-06 08:28:00,64.8,63.7,29.76,WSW,248,0.0,4.0,96,0.00,,,0.00,107.0,meteohub,2013-08-06 13:28:00,
2013-08-06 08:33:00,64.9,63.9,29.75,WSW,248,0.0,2.0,96,0.00,,,0.00,123.0,meteohub,2013-08-06 13:33:00,
2013-08-06 08:38:00,65.3,64.0,29.76,WSW,242,0.0,2.0,96,0.00,,,0.00,127.0,meteohub,2013-08-06 13:38:00,
2013-08-06 08:43:00,65.7,64.4,29.76,NW,310,0.0,5.0,96,0.00,,,0.00,121.0,meteohub,2013-08-06 13:43:00,
2013-08-06 08:48:00,65.7,64.2,29.76,NW,310,0.0,5.0,95,0.00,,,0.00,121.0,meteohub,2013-08-06 13:48:00,
2013-08-06 08:53:00,65.8,64.0,29.75,NNW,345,0.0,5.0,94,0.00,,,0.00,149.0,meteohub,2013-08-06 13:53:00,
2013-08-06 08:58:00,66.4,64.6,29.75,NE,50,0.0,4.0,94,0.00,,,0.00,118.0,meteohub,2013-08-06 13:58:00,
2013-08-06 09:03:00,66.6,64.8,29.75,NW,326,0.0,4.0,94,0.00,,,0.00,200.0,meteohub,2013-08-06 14:03:00,
2013-08-06 09:08:00,66.7,64.9,29.75,NE,42,0.0,4.0,94,0.00,,,0.00,199.0,meteohub,2013-08-06 14:08:00,
2013-08-06 09:13:00,67.3,65.1,29.75,NW,321,0.0,2.0,93,0.00,,,0.00,171.0,meteohub,2013-08-06 14:13:00,
2013-08-06 09:18:00,67.5,65.1,29.75,North,351,0.0,2.0,92,0.00,,,0.00,169.0,meteohub,2013-08-06 14:18:00,
2013-08-06 09:23:00,67.3,64.9,29.75,WNW,292,1.0,2.0,92,0.00,,,0.00,148.0,meteohub,2013-08-06 14:23:00,
2013-08-06 09:28:00,67.5,65.7,29.75,WNW,296,0.0,2.0,94,0.00,,,0.00,174.0,meteohub,2013-08-06 14:28:00,
2013-08-06 09:33:00,67.6,65.5,29.75,WNW,296,0.0,2.0,93,0.00,,,0.00,267.0,meteohub,2013-08-06 14:33:00,
2013-08-06 09:38:00,68.4,66.2,29.75,WNW,294,1.0,1.0,93,0.00,,,0.00,315.0,meteohub,2013-08-06 14:38:00,
2013-08-06 09:43:00,68.9,66.2,29.74,NE,54,0.0,1.0,91,0.00,,,0.00,295.0,meteohub,2013-08-06 14:43:00,
2013-08-06 09:48:00,69.3,65.8,29.74,NNW,329,0.0,3.0,89,0.00,,,0.00,225.0,meteohub,2013-08-06 14:48:00,
2013-08-06 09:53:00,69.3,66.6,29.74,NW,325,0.0,3.0,91,0.00,,,0.00,380.0,meteohub,2013-08-06 14:53:00,
2013-08-06 09:58:00,69.6,66.6,29.74,West,259,0.0,3.0,90,0.00,,,0.00,659.0,meteohub,2013-08-06 14:58:00,
2013-08-06 10:03:00,69.8,66.7,29.74,West,259,0.0,3.0,90,0.00,,,0.00,466.0,meteohub,2013-08-06 15:03:00,
2013-08-06 10:08:00,70.0,66.2,29.74,West,259,0.0,3.0,88,0.00,,,0.00,265.0,meteohub,2013-08-06 15:08:00,
2013-08-06 10:13:00,70.0,66.0,29.74,West,262,0.0,3.0,87,0.00,,,0.00,332.0,meteohub,2013-08-06 15:13:00,
2013-08-06 10:18:00,70.2,66.0,29.74,WNW,294,1.0,3.0,87,0.00,,,0.00,279.0,meteohub,2013-08-06 15:18:00,
2013-08-06 10:23:00,70.3,66.6,29.74,WNW,294,0.0,3.0,88,0.00,,,0.00,596.0,meteohub,2013-08-06 15:23:00,
2013-08-06 10:28:00,71.2,67.5,29.74,WNW,294,0.0,3.0,88,0.00,,,0.00,675.0,meteohub,2013-08-06 15:28:00,
2013-08-06 10:33:00,71.8,67.6,29.74,NNW,346,1.0,2.0,87,0.00,,,0.00,308.0,meteohub,2013-08-06 15:33:00,
2013-08-06 10:38:00,72.0,67.8,29.74,NW,318,0.0,2.0,87,0.00,,,0.00,599.0,meteohub,2013-08-06 15:38:00,
2013-08-06 10:43:00,71.8,67.6,29.73,NW,317,0.0,2.0,87,0.00,,,0.00,640.0,meteohub,2013-08-06 15:43:00,
2013-08-06 10:48:00,72.3,67.6,29.73,West,278,0.0,2.0,85,0.00,,,0.00,647.0,meteohub,2013-08-06 15:48:00,
2013-08-06 10:53:00,72.9,68.4,29.73,West,278,0.0,2.0,86,0.00,,,0.00,663.0,meteohub,2013-08-06 15:53:00,
2013-08-06 10:58:00,73.0,68.9,29.73,West,265,0.0,2.0,87,0.00,,,0.00,671.0,meteohub,2013-08-06 15:58:00,
2013-08-06 11:03:00,74.1,68.5,29.73,SSW,205,0.0,2.0,83,0.00,,,0.00,684.0,meteohub,2013-08-06 16:03:00,
2013-08-06 11:08:00,73.9,69.4,29.73,SW,223,0.0,2.0,86,0.00,,,0.00,694.0,meteohub,2013-08-06 16:08:00,
2013-08-06 11:13:00,74.1,68.5,29.73,WSW,244,1.0,2.0,83,0.00,,,0.00,707.0,meteohub,2013-08-06 16:13:00,
2013-08-06 11:18:00,74.7,68.4,29.73,WSW,246,0.0,2.0,81,0.00,,,0.00,717.0,meteohub,2013-08-06 16:18:00,
2013-08-06 11:23:00,75.0,68.4,29.73,WNW,286,0.0,2.0,80,0.00,,,0.00,722.0,meteohub,2013-08-06 16:23:00,
2013-08-06 11:29:00,75.4,69.4,29.74,West,277,3.0,3.0,82,0.00,,,0.00,728.0,meteohub,2013-08-06 16:29:00,
2013-08-06 11:34:00,75.2,66.7,29.74,South,175,0.0,2.0,75,0.00,,,0.00,740.0,meteohub,2013-08-06 16:34:00,
2013-08-06 11:39:00,75.9,68.5,29.74,West,265,1.0,5.0,78,0.00,,,0.00,745.0,meteohub,2013-08-06 16:39:00,
2013-08-06 11:44:00,75.7,68.4,29.74,West,264,0.0,5.0,78,0.00,,,0.00,759.0,meteohub,2013-08-06 16:44:00,
2013-08-06 11:49:00,76.3,68.2,29.73,WNW,296,0.0,5.0,76,0.00,,,0.00,766.0,meteohub,2013-08-06 16:49:00,
2013-08-06 11:54:00,75.9,69.3,29.74,West,273,3.0,3.0,80,0.00,,,0.00,768.0,meteohub,2013-08-06 16:54:00,
2013-08-06 11:59:00,76.3,68.2,29.74,East,79,0.0,4.0,76,0.00,,,0.00,777.0,meteohub,2013-08-06 16:59:00,
2013-08-06 12:04:00,76.6,69.6,29.73,East,80,0.0,4.0,79,0.00,,,0.00,782.0,meteohub,2013-08-06 17:04:00,
2013-08-06 12:09:00,76.8,68.4,29.73,West,274,1.0,4.0,75,0.00,,,0.00,793.0,meteohub,2013-08-06 17:09:00,
2013-08-06 12:14:00,77.5,69.4,29.73,NW,317,0.0,3.0,76,0.00,,,0.00,795.0,meteohub,2013-08-06 17:14:00,
2013-08-06 12:19:00,78.1,68.7,29.73,West,265,1.0,3.0,73,0.00,,,0.00,916.0,meteohub,2013-08-06 17:19:00,
2013-08-06 12:24:00,76.6,67.6,29.74,West,265,1.0,4.0,74,0.00,,,0.00,301.0,meteohub,2013-08-06 17:24:00,
2013-08-06 12:27:00,77.2,68.2,29.74,WSW,257,1.0,5.0,74,0.00,,,0.00,911.0,meteohub,2013-08-06 17:27:00,
2013-08-06 12:32:00,76.8,67.5,29.74,WSW,257,2.0,5.0,73,0.00,,,0.00,371.0,meteohub,2013-08-06 17:32:00,
2013-08-06 12:37:00,76.8,67.5,29.74,WSW,257,1.0,5.0,73,0.00,,,0.00,816.0,meteohub,2013-08-06 17:37:00,
2013-08-06 12:42:00,78.4,69.1,29.74,NW,324,0.0,3.0,73,0.00,,,0.00,816.0,meteohub,2013-08-06 17:42:00,
2013-08-06 12:47:00,77.9,68.2,29.74,West,273,1.0,3.0,72,0.00,,,0.00,823.0,meteohub,2013-08-06 17:47:00,
2013-08-06 12:52:00,78.4,67.8,29.74,West,264,3.0,3.0,70,0.00,,,0.00,821.0,meteohub,2013-08-06 17:52:00,
2013-08-06 12:57:00,78.4,69.4,29.74,West,268,3.0,5.0,74,0.00,,,0.00,823.0,meteohub,2013-08-06 17:57:00,
2013-08-06 13:02:00,78.6,70.3,29.74,West,271,0.0,5.0,76,0.00,,,0.00,826.0,meteohub,2013-08-06 18:02:00,
2013-08-06 13:07:00,78.6,68.9,29.74,SSW,199,0.0,5.0,72,0.00,,,0.00,830.0,meteohub,2013-08-06 18:07:00,
2013-08-06 13:12:00,79.2,68.5,29.73,West,269,1.0,5.0,70,0.00,,,0.00,835.0,meteohub,2013-08-06 18:12:00,
2013-08-06 13:17:00,79.2,68.2,29.73,WNW,294,2.0,3.0,69,0.00,,,0.00,837.0,meteohub,2013-08-06 18:17:00,
2013-08-06 13:22:00,79.0,69.6,29.73,WSW,255,4.0,4.0,73,0.00,,,0.00,833.0,meteohub,2013-08-06 18:22:00,
2013-08-06 13:27:00,78.4,69.8,29.73,West,270,1.0,4.0,75,0.00,,,0.00,835.0,meteohub,2013-08-06 18:27:00,
2013-08-06 13:32:00,78.6,68.4,29.73,WSW,240,1.0,4.0,71,0.00,,,0.00,835.0,meteohub,2013-08-06 18:32:00,
2013-08-06 13:37:00,79.3,69.1,29.72,WSW,257,0.0,4.0,71,0.00,,,0.00,835.0,meteohub,2013-08-06 18:37:00,
2013-08-06 13:42:00,79.5,68.9,29.73,West,267,0.0,3.0,70,0.00,,,0.00,842.0,meteohub,2013-08-06 18:42:00,
2013-08-06 13:47:00,79.3,67.5,29.72,West,265,0.0,4.0,67,0.00,,,0.00,831.0,meteohub,2013-08-06 18:47:00,
2013-08-06 13:52:00,79.2,69.3,29.73,West,265,1.0,4.0,72,0.00,,,0.00,837.0,meteohub,2013-08-06 18:52:00,
2013-08-06 13:57:00,80.1,68.9,29.73,West,269,1.0,4.0,69,0.00,,,0.00,831.0,meteohub,2013-08-06 18:57:00,
2013-08-06 14:02:00,80.8,70.5,29.73,West,269,1.0,4.0,71,0.00,,,0.00,833.0,meteohub,2013-08-06 19:02:00,
2013-08-06 14:07:00,80.8,71.2,29.72,West,268,0.0,4.0,73,0.00,,,0.00,830.0,meteohub,2013-08-06 19:07:00,
2013-08-06 14:12:00,80.4,70.5,29.72,West,264,1.0,4.0,72,0.00,,,0.00,828.0,meteohub,2013-08-06 19:12:00,
2013-08-06 14:17:00,80.6,70.3,29.73,West,265,1.0,4.0,71,0.00,,,0.00,749.0,meteohub,2013-08-06 19:17:00,
2013-08-06 14:22:00,81.0,69.8,29.72,West,263,3.0,4.0,69,0.00,,,0.00,849.0,meteohub,2013-08-06 19:22:00,
2013-08-06 14:27:00,81.0,69.4,29.72,West,259,3.0,4.0,68,0.00,,,0.00,870.0,meteohub,2013-08-06 19:27:00,
2013-08-06 14:32:00,81.0,71.1,29.72,WNW,288,2.0,5.0,72,0.00,,,0.00,840.0,meteohub,2013-08-06 19:32:00,
2013-08-06 14:38:00,81.3,68.4,29.72,West,269,3.0,5.0,65,0.00,,,0.00,875.0,meteohub,2013-08-06 19:38:00,
2013-08-06 14:43:00,81.3,69.3,29.72,West,267,3.0,6.0,67,0.00,,,0.00,819.0,meteohub,2013-08-06 19:43:00,
2013-08-06 14:48:00,81.5,68.5,29.72,West,265,4.0,6.0,65,0.00,,,0.00,798.0,meteohub,2013-08-06 19:48:00,
2013-08-06 14:53:00,81.3,68.9,29.72,West,259,2.0,7.0,66,0.00,,,0.00,795.0,meteohub,2013-08-06 19:53:00,
2013-08-06 14:58:00,81.7,68.7,29.72,WSW,250,3.0,7.0,65,0.00,,,0.00,796.0,meteohub,2013-08-06 19:58:00,
2013-08-06 15:03:00,81.7,69.6,29.72,WSW,257,4.0,7.0,67,0.00,,,0.00,779.0,meteohub,2013-08-06 20:03:00,
2013-08-06 15:08:00,81.9,68.9,29.72,WSW,256,1.0,7.0,65,0.00,,,0.00,805.0,meteohub,2013-08-06 20:08:00,
2013-08-06 15:13:00,81.3,68.9,29.72,West,263,1.0,7.0,66,0.00,,,0.00,197.0,meteohub,2013-08-06 20:13:00,
2013-08-06 15:18:00,80.8,68.0,29.72,WSW,250,1.0,6.0,65,0.00,,,0.00,907.0,meteohub,2013-08-06 20:18:00,
2013-08-06 15:23:00,82.0,70.3,29.71,West,275,4.0,5.0,68,0.00,,,0.00,775.0,meteohub,2013-08-06 20:23:00,
2013-08-06 15:28:00,82.0,69.1,29.71,West,265,5.0,6.0,65,0.00,,,0.00,761.0,meteohub,2013-08-06 20:28:00,
2013-08-06 15:33:00,81.7,70.2,29.71,WSW,254,3.0,6.0,68,0.00,,,0.00,749.0,meteohub,2013-08-06 20:33:00,
2013-08-06 15:38:00,82.0,68.7,29.71,West,262,3.0,6.0,64,0.00,,,0.00,738.0,meteohub,2013-08-06 20:38:00,
2013-08-06 15:43:00,81.9,70.3,29.71,West,267,0.0,6.0,68,0.00,,,0.00,742.0,meteohub,2013-08-06 20:43:00,
2013-08-06 15:48:00,82.0,69.6,29.71,West,281,2.0,6.0,66,0.00,,,0.00,775.0,meteohub,2013-08-06 20:48:00,
2013-08-06 15:53:00,82.0,71.2,29.71,WSW,248,0.0,6.0,70,0.00,,,0.00,234.0,meteohub,2013-08-06 20:53:00,
2013-08-06 15:58:00,81.3,69.8,29.70,West,269,5.0,5.0,68,0.00,,,0.00,336.0,meteohub,2013-08-06 20:58:00,
2013-08-06 16:03:00,81.7,70.2,29.70,West,265,4.0,5.0,68,0.00,,,0.00,446.0,meteohub,2013-08-06 21:03:00,
2013-08-06 16:08:00,81.7,69.3,29.70,WSW,258,5.0,6.0,66,0.00,,,0.00,352.0,meteohub,2013-08-06 21:08:00,
2013-08-06 16:09:00,81.7,70.2,29.70,WSW,255,2.0,6.0,68,0.00,,,0.00,352.0,meteohub,2013-08-06 21:09:00,
2013-08-06 16:14:00,81.3,69.8,29.70,WSW,255,4.0,6.0,68,0.00,,,0.00,424.0,meteohub,2013-08-06 21:14:00,
2013-08-06 16:19:00,80.8,68.4,29.70,WSW,253,1.0,6.0,66,0.00,,,0.00,306.0,meteohub,2013-08-06 21:19:00,
2013-08-06 16:24:00,80.6,67.8,29.70,WSW,254,3.0,6.0,65,0.00,,,0.00,264.0,meteohub,2013-08-06 21:24:00,
2013-08-06 16:29:00,80.2,67.8,29.69,West,259,0.0,6.0,66,0.00,,,0.00,269.0,meteohub,2013-08-06 21:29:00,
2013-08-06 16:34:00,79.7,69.4,29.69,West,269,0.0,6.0,71,0.00,,,0.00,281.0,meteohub,2013-08-06 21:34:00,
2013-08-06 16:39:00,80.1,70.2,29.69,WNW,297,3.0,6.0,72,0.00,,,0.00,645.0,meteohub,2013-08-06 21:39:00,
2013-08-06 16:44:00,80.4,68.9,29.69,West,273,1.0,6.0,68,0.00,,,0.00,374.0,meteohub,2013-08-06 21:44:00,
2013-08-06 16:49:00,80.4,70.2,29.69,West,274,1.0,5.0,71,0.00,,,0.00,229.0,meteohub,2013-08-06 21:49:00,
2013-08-06 16:54:00,80.6,70.0,29.69,WSW,256,2.0,5.0,70,0.00,,,0.00,250.0,meteohub,2013-08-06 21:54:00,
2013-08-06 16:59:00,80.2,70.3,29.69,WSW,258,2.0,5.0,72,0.00,,,0.00,221.0,meteohub,2013-08-06 21:59:00,
2013-08-06 17:04:00,79.9,69.6,29.69,West,267,2.0,4.0,71,0.00,,,0.00,213.0,meteohub,2013-08-06 22:04:00,
2013-08-06 17:09:00,80.2,70.3,29.68,WSW,248,0.0,4.0,72,0.00,,,0.00,160.0,meteohub,2013-08-06 22:09:00,
2013-08-06 17:14:00,79.5,70.5,29.68,WSW,249,2.0,4.0,74,0.00,,,0.00,185.0,meteohub,2013-08-06 22:14:00,
2013-08-06 17:19:00,79.5,70.2,29.68,WSW,249,2.0,4.0,73,0.00,,,0.00,225.0,meteohub,2013-08-06 22:19:00,
2013-08-06 17:24:00,80.1,68.9,29.68,West,267,4.0,4.0,69,0.00,,,0.00,185.0,meteohub,2013-08-06 22:24:00,
2013-08-06 17:29:00,80.4,69.3,29.68,West,267,3.0,6.0,69,0.00,,,0.00,137.0,meteohub,2013-08-06 22:29:00,
2013-08-06 17:34:00,80.1,68.5,29.68,West,267,2.0,6.0,68,0.00,,,0.00,86.0,meteohub,2013-08-06 22:34:00,
2013-08-06 17:39:00,79.5,68.0,29.68,West,276,4.0,6.0,68,0.00,,,0.00,116.0,meteohub,2013-08-06 22:39:00,
2013-08-06 17:44:00,79.9,66.6,29.68,West,261,3.0,6.0,64,0.00,,,0.00,186.0,meteohub,2013-08-06 22:44:00,
2013-08-06 17:49:00,80.1,68.2,29.68,West,261,4.0,6.0,67,0.00,,,0.00,135.0,meteohub,2013-08-06 22:49:00,
2013-08-06 17:54:00,79.9,67.5,29.68,West,265,6.0,6.0,66,0.00,,,0.00,111.0,meteohub,2013-08-06 22:54:00,
2013-08-06 17:59:00,79.7,67.8,29.68,WSW,254,4.0,6.0,67,0.00,,,0.00,93.0,meteohub,2013-08-06 22:59:00,
2013-08-06 18:04:00,80.1,67.6,29.68,West,274,2.0,7.0,66,0.00,,,0.00,128.0,meteohub,2013-08-06 23:04:00,
2013-08-06 18:09:00,80.1,67.3,29.68,WSW,254,3.0,7.0,65,0.00,,,0.00,56.0,meteohub,2013-08-06 23:09:00,
2013-08-06 18:14:00,79.9,67.5,29.68,West,261,2.0,6.0,66,0.00,,,0.00,69.0,meteohub,2013-08-06 23:14:00,
2013-08-06 18:19:00,79.9,68.0,29.68,West,265,3.0,6.0,67,0.00,,,0.00,83.0,meteohub,2013-08-06 23:19:00,
2013-08-06 18:24:00,79.5,66.7,29.68,West,259,4.0,7.0,65,0.00,,,0.00,51.0,meteohub,2013-08-06 23:24:00,
2013-08-06 18:29:00,79.7,66.0,29.69,WSW,254,4.0,7.0,63,0.00,,,0.00,51.0,meteohub,2013-08-06 23:29:00,
2013-08-06 18:34:00,79.7,66.4,29.69,West,273,4.0,7.0,64,0.00,,,0.00,144.0,meteohub,2013-08-06 23:34:00,
2013-08-06 18:39:00,79.3,66.0,29.70,WSW,254,3.0,7.0,64,0.00,,,0.00,127.0,meteohub,2013-08-06 23:39:00,
2013-08-06 18:44:00,79.3,66.6,29.70,West,260,3.0,7.0,65,0.00,,,0.00,121.0,meteohub,2013-08-06 23:44:00,
2013-08-06 18:49:00,79.2,66.7,29.70,West,261,4.0,7.0,66,0.00,,,0.00,95.0,meteohub,2013-08-06 23:49:00,
2013-08-06 18:54:00,79.3,66.9,29.69,WSW,256,4.0,7.0,66,0.00,,,0.00,60.0,meteohub,2013-08-06 23:54:00,
2013-08-06 18:59:00,79.3,66.9,29.69,WSW,243,3.0,7.0,66,0.00,,,0.00,40.0,meteohub,2013-08-06 23:59:00,
2013-08-06 19:04:00,79.3,67.5,29.69,WSW,256,3.0,7.0,67,0.00,,,0.00,53.0,meteohub,2013-08-07 00:04:00,
2013-08-06 19:09:00,79.2,67.6,29.70,WSW,246,3.0,6.0,68,0.00,,,0.00,26.0,meteohub,2013-08-07 00:09:00,
2013-08-06 19:14:00,79.0,67.5,29.70,West,262,4.0,6.0,68,0.00,,,0.00,51.0,meteohub,2013-08-07 00:14:00,
2013-08-06 19:19:00,78.8,67.3,29.70,West,262,3.0,6.0,68,0.00,,,0.00,28.0,meteohub,2013-08-07 00:19:00,
2013-08-06 19:24:00,78.3,67.3,29.70,West,263,1.0,6.0,69,0.00,,,0.00,12.0,meteohub,2013-08-07 00:24:00,
2013-08-06 19:29:00,77.7,66.4,29.69,NNW,338,0.0,6.0,68,0.00,,,0.00,11.0,meteohub,2013-08-07 00:29:00,
2013-08-06 19:34:00,76.8,64.9,29.70,NNW,332,1.0,5.0,67,0.00,,,0.00,12.0,meteohub,2013-08-07 00:34:00,
2013-08-06 19:39:00,76.1,63.5,29.73,NW,324,4.0,5.0,65,0.00,,,0.00,21.0,meteohub,2013-08-07 00:39:00,
2013-08-06 19:44:00,74.5,62.8,29.74,NW,318,2.0,5.0,67,0.00,,,0.00,28.0,meteohub,2013-08-07 00:44:00,
2013-08-06 19:49:00,73.0,62.6,29.74,ENE,67,2.0,14.0,70,0.00,,,0.00,91.0,meteohub,2013-08-07 00:49:00,
2013-08-06 19:54:00,71.2,64.4,29.75,NE,34,0.0,14.0,79,0.00,,,0.00,163.0,meteohub,2013-08-07 00:54:00,
2013-08-06 19:59:00,69.4,65.5,29.75,SE,144,0.0,14.0,87,0.00,,,0.00,102.0,meteohub,2013-08-07 00:59:00,
2013-08-06 20:04:00,68.5,65.1,29.75,SE,144,0.0,6.0,89,0.02,,,0.02,39.0,meteohub,2013-08-07 01:04:00,
2013-08-06 20:09:00,67.6,64.6,29.75,SE,144,0.0,2.0,90,0.02,,,0.02,23.0,meteohub,2013-08-07 01:09:00,
2013-08-06 20:14:00,67.3,64.6,29.74,SE,144,0.0,1.0,91,0.02,,,0.02,14.0,meteohub,2013-08-07 01:14:00,
2013-08-06 20:19:00,66.7,64.0,29.74,SE,144,0.0,0.0,91,0.02,,,0.02,12.0,meteohub,2013-08-07 01:19:00,
2013-08-06 20:24:00,66.4,63.7,29.75,SE,144,0.0,0.0,91,0.02,,,0.02,11.0,meteohub,2013-08-07 01:24:00,
2013-08-06 20:29:00,66.0,63.7,29.75,SE,144,0.0,0.0,92,0.02,,,0.02,7.0,meteohub,2013-08-07 01:29:00,
2013-08-06 20:34:00,65.8,63.5,29.74,SE,144,0.0,0.0,92,0.02,,,0.02,5.0,meteohub,2013-08-07 01:34:00,
2013-08-06 20:39:00,65.7,63.3,29.74,SE,144,0.0,0.0,92,0.02,,,0.02,0.0,meteohub,2013-08-07 01:39:00,
2013-08-06 20:44:00,65.8,63.5,29.74,SE,144,0.0,0.0,92,0.02,,,0.02,0.0,meteohub,2013-08-07 01:44:00,
2013-08-06 20:49:00,65.5,63.1,29.74,SE,144,0.0,0.0,92,0.02,,,0.02,0.0,meteohub,2013-08-07 01:49:00,
2013-08-06 20:54:00,64.9,62.6,29.75,SE,144,0.0,0.0,92,0.02,,,0.02,0.0,meteohub,2013-08-07 01:54:00,
2013-08-06 20:59:00,64.8,62.6,29.75,SE,144,0.0,0.0,93,0.00,,,0.02,0.0,meteohub,2013-08-07 01:59:00,
2013-08-06 21:05:00,64.6,62.4,29.75,SE,144,0.0,0.0,93,0.00,,,0.02,0.0,meteohub,2013-08-07 02:05:00,
2013-08-06 21:10:00,64.2,62.4,29.75,SE,144,0.0,0.0,94,0.00,,,0.02,0.0,meteohub,2013-08-07 02:10:00,
2013-08-06 21:15:00,64.2,62.4,29.77,SE,144,0.0,0.0,94,0.00,,,0.02,0.0,meteohub,2013-08-07 02:15:00,
2013-08-06 21:20:00,64.0,62.2,29.77,SE,144,0.0,0.0,94,0.00,,,0.02,0.0,meteohub,2013-08-07 02:20:00,
2013-08-06 21:25:00,63.9,62.1,29.78,SE,144,0.0,0.0,94,0.00,,,0.02,0.0,meteohub,2013-08-07 02:25:00,
2013-08-06 21:30:00,63.9,62.1,29.78,SE,144,0.0,0.0,94,0.00,,,0.02,0.0,meteohub,2013-08-07 02:30:00,
2013-08-06 21:35:00,63.9,62.1,29.78,SE,144,0.0,0.0,94,0.00,,,0.02,0.0,meteohub,2013-08-07 02:35:00,
2013-08-06 21:40:00,63.7,61.7,29.78,SE,144,0.0,1.0,93,0.00,,,0.02,0.0,meteohub,2013-08-07 02:40:00,
2013-08-06 21:45:00,63.3,61.3,29.78,SE,144,0.0,1.0,93,0.00,,,0.02,0.0,meteohub,2013-08-07 02:45:00,
2013-08-06 21:50:00,63.3,61.3,29.78,SE,144,0.0,0.0,93,0.00,,,0.02,0.0,meteohub,2013-08-07 02:50:00,
2013-08-06 21:55:00,63.1,61.2,29.79,SE,144,0.0,0.0,93,0.00,,,0.02,0.0,meteohub,2013-08-07 02:55:00,
2013-08-06 22:00:00,63.0,61.0,29.79,SE,144,0.0,0.0,93,0.00,,,0.02,0.0,meteohub,2013-08-07 03:00:00,
2013-08-06 22:05:00,62.8,60.8,29.79,SE,144,0.0,0.0,93,0.00,,,0.02,0.0,meteohub,2013-08-07 03:05:00,
2013-08-06 22:10:00,62.6,60.8,29.79,SE,144,0.0,0.0,94,0.00,,,0.02,0.0,meteohub,2013-08-07 03:10:00,
2013-08-06 22:15:00,62.6,60.8,29.80,SE,144,0.0,0.0,94,0.00,,,0.02,0.0,meteohub,2013-08-07 03:15:00,
2013-08-06 22:20:00,62.4,60.6,29.80,SE,144,0.0,0.0,94,0.00,,,0.02,0.0,meteohub,2013-08-07 03:20:00,
2013-08-06 22:25:00,62.2,60.4,29.80,SE,144,0.0,0.0,94,0.00,,,0.02,0.0,meteohub,2013-08-07 03:25:00,
2013-08-06 22:30:00,62.4,60.6,29.80,SE,144,0.0,0.0,94,0.00,,,0.02,0.0,meteohub,2013-08-07 03:30:00,
2013-08-06 22:35:00,62.2,60.4,29.81,SE,144,0.0,0.0,94,0.00,,,0.02,0.0,meteohub,2013-08-07 03:35:00,
2013-08-06 22:40:00,62.2,60.8,29.81,SE,144,0.0,0.0,95,0.00,,,0.02,0.0,meteohub,2013-08-07 03:40:00,
2013-08-06 22:45:00,62.2,60.8,29.81,SE,144,0.0,0.0,95,0.00,,,0.02,0.0,meteohub,2013-08-07 03:45:00,
2013-08-06 22:50:00,62.2,60.8,29.81,SE,144,0.0,0.0,95,0.00,,,0.02,0.0,meteohub,2013-08-07 03:50:00,
2013-08-06 22:55:00,62.1,60.6,29.81,SE,144,0.0,0.0,95,0.00,,,0.02,0.0,meteohub,2013-08-07 03:55:00,
2013-08-06 23:00:00,62.4,61.3,29.81,NE,42,0.0,0.0,96,0.00,,,0.02,0.0,meteohub,2013-08-07 04:00:00,
2013-08-06 23:01:00,62.4,61.3,29.81,NE,42,0.0,2.0,96,0.00,,,0.02,0.0,meteohub,2013-08-07 04:01:00,
2013-08-06 23:06:00,62.8,61.7,29.81,NNE,14,0.0,2.0,96,0.00,,,0.02,0.0,meteohub,2013-08-07 04:06:00,
2013-08-06 23:11:00,63.0,61.9,29.81,North,5,0.0,2.0,96,0.00,,,0.02,0.0,meteohub,2013-08-07 04:11:00,
2013-08-06 23:16:00,63.1,62.1,29.82,NNW,333,0.0,2.0,96,0.00,,,0.02,0.0,meteohub,2013-08-07 04:16:00,
2013-08-06 23:22:00,63.3,62.2,29.82,West,262,3.0,4.0,96,0.00,,,0.02,0.0,meteohub,2013-08-07 04:22:00,
2013-08-06 23:27:00,63.3,62.2,29.82,NNW,340,0.0,4.0,96,0.00,,,0.02,0.0,meteohub,2013-08-07 04:27:00,
2013-08-06 23:32:00,63.3,62.2,29.82,NW,321,0.0,3.0,96,0.00,,,0.02,0.0,meteohub,2013-08-07 04:32:00,
2013-08-06 23:37:00,63.3,62.2,29.82,NW,321,0.0,3.0,96,0.00,,,0.02,0.0,meteohub,2013-08-07 04:37:00,
2013-08-06 23:42:00,63.1,62.1,29.82,NW,306,0.0,3.0,96,0.00,,,0.02,0.0,meteohub,2013-08-07 04:42:00,
2013-08-06 23:47:00,63.1,62.1,29.82,West,281,0.0,6.0,96,0.00,,,0.02,0.0,meteohub,2013-08-07 04:47:00,
2013-08-06 23:52:00,63.0,61.9,29.83,NW,317,0.0,6.0,96,0.00,,,0.02,0.0,meteohub,2013-08-07 04:52:00,
2013-08-06 23:57:00,63.0,61.9,29.83,NNW,343,0.0,6.0,96,0.00,,,0.02,0.0,meteohub,2013-08-07 04:57:00,